Time,TemperatureF,DewpointF,PressureIn,WindDirection,WindDirectionDegrees,WindSpeedMPH,WindSpeedGustMPH,Humidity,HourlyPrecipIn,Conditions,Clouds,dailyrainin,SoftwareType,DateUTC
2013-01-29 00:05:00,37.9,36.3,30.07,North,-999,0.0,0.0,94,0.00,,,-99.99,WeatherLink 5.4,2013-01-29 05:05:00,
2013-01-29 00:15:00,38.2,36.6,30.06,North,-999,0.0,0.0,94,0.00,,,-99.99,WeatherLink 5.4,2013-01-29 05:15:00,
2013-01-29 00:20:00,38.2,36.6,30.06,North,-999,0.0,0.0,94,0.00,,,-99.99,WeatherLink 5.4,2013-01-29 05:20:00,
2013-01-29 00:30:00,38.3,36.7,30.06,North,-999,0.0,0.0,94,0.00,,,-99.99,WeatherLink 5.4,2013-01-29 05:30:00,
2013-01-29 00:35:00,38.3,36.7,30.06,North,-999,0.0,0.0,94,0.00,,,-99.99,WeatherLink 5.4,2013-01-29 05:35:00,
2013-01-29 00:45:00,38.3,36.7,30.06,North,-999,0.0,0.0,94,0.00,,,-99.99,WeatherLink 5.4,2013-01-29 05:45:00,
2013-01-29 01:00:00,38.6,37.0,30.06,North,-999,0.0,0.0,94,0.00,,,-99.99,WeatherLink 5.4,2013-01-29 06:00:00,
2013-01-29 01:15:00,38.9,37.6,30.06,North,-999,0.0,0.0,95,0.00,,,-99.99,WeatherLink 5.4,2013-01-29 06:15:00,
2013-01-29 01:30:00,39.1,37.8,30.06,North,-999,0.0,0.0,95,0.00,,,-99.99,WeatherLink 5.4,2013-01-29 06:30:00,
2013-01-29 01:45:00,39.2,37.9,30.06,North,-999,0.0,0.0,95,0.00,,,-99.99,WeatherLink 5.4,2013-01-29 06:45:00,
2013-01-29 01:50:00,39.2,37.9,30.06,North,-999,0.0,0.0,95,0.00,,,-99.99,WeatherLink 5.4,2013-01-29 06:50:00,
2013-01-29 02:00:00,39.2,37.9,30.06,North,-999,0.0,0.0,95,0.00,,,-99.99,WeatherLink 5.4,2013-01-29 07:00:00,
2013-01-29 02:15:00,39.2,37.9,30.06,SE,135,0.0,1.0,95,0.00,,,-99.99,WeatherLink 5.4,2013-01-29 07:15:00,
2013-01-29 02:20:00,39.2,37.9,30.06,SE,135,0.0,1.0,95,0.00,,,-99.99,WeatherLink 5.4,2013-01-29 07:20:00,
2013-01-29 02:30:00,39.3,38.0,30.07,SE,135,0.0,2.0,95,0.00,,,-99.99,WeatherLink 5.4,2013-01-29 07:30:00,
2013-01-29 02:45:00,39.5,38.2,30.07,SE,135,0.0,2.0,95,0.00,,,-99.99,WeatherLink 5.4,2013-01-29 07:45:00,
2013-01-29 03:00:00,39.6,38.3,30.07,North,-999,0.0,0.0,95,0.00,,,-99.99,WeatherLink 5.4,2013-01-29 08:00:00,
2013-01-29 03:15:00,39.8,38.5,30.07,North,-999,0.0,0.0,95,0.00,,,-99.99,WeatherLink 5.4,2013-01-29 08:15:00,
2013-01-29 03:30:00,39.9,38.6,30.07,North,-999,0.0,0.0,95,0.00,,,-99.99,WeatherLink 5.4,2013-01-29 08:30:00,
2013-01-29 03:35:00,39.9,38.6,30.07,North,-999,0.0,0.0,95,0.00,,,-99.99,WeatherLink 5.4,2013-01-29 08:35:00,
2013-01-29 03:45:00,40.1,38.8,30.07,North,-999,0.0,0.0,95,0.00,,,-99.99,WeatherLink 5.4,2013-01-29 08:45:00,
2013-01-29 03:50:00,40.1,38.8,30.07,North,-999,0.0,0.0,95,0.00,,,-99.99,WeatherLink 5.4,2013-01-29 08:50:00,
2013-01-29 04:00:00,40.1,38.8,30.08,North,-999,0.0,0.0,95,0.00,,,-99.99,WeatherLink 5.4,2013-01-29 09:00:00,
2013-01-29 04:15:00,40.2,38.9,30.07,North,-999,0.0,0.0,95,0.00,,,-99.99,WeatherLink 5.4,2013-01-29 09:15:00,
2013-01-29 04:30:00,40.2,38.9,30.07,North,-999,0.0,0.0,95,0.00,,,-99.99,WeatherLink 5.4,2013-01-29 09:30:00,
2013-01-29 04:45:00,40.3,39.0,30.08,North,-999,0.0,0.0,95,0.00,,,-99.99,WeatherLink 5.4,2013-01-29 09:45:00,
2013-01-29 05:00:00,40.3,39.0,30.08,North,-999,0.0,0.0,95,0.00,,,-99.99,WeatherLink 5.4,2013-01-29 10:00:00,
2013-01-29 05:15:00,40.5,39.2,30.07,North,-999,0.0,0.0,95,0.00,,,-99.99,WeatherLink 5.4,2013-01-29 10:15:00,
2013-01-29 05:30:00,40.5,39.2,30.08,North,-999,0.0,0.0,95,0.00,,,-99.99,WeatherLink 5.4,2013-01-29 10:30:00,
2013-01-29 05:45:00,40.5,39.2,30.08,North,-999,0.0,0.0,95,0.00,,,-99.99,WeatherLink 5.4,2013-01-29 10:45:00,
2013-01-29 06:00:00,40.5,39.2,30.08,North,-999,0.0,0.0,95,0.00,,,-99.99,WeatherLink 5.4,2013-01-29 11:00:00,
2013-01-29 06:15:00,40.5,39.2,30.09,North,-999,0.0,0.0,95,0.00,,,-99.99,WeatherLink 5.4,2013-01-29 11:15:00,
2013-01-29 06:30:00,40.5,39.2,30.09,North,-999,0.0,0.0,95,0.00,,,-99.99,WeatherLink 5.4,2013-01-29 11:30:00,
2013-01-29 06:35:00,40.5,39.2,30.09,North,-999,0.0,0.0,95,0.00,,,-99.99,WeatherLink 5.4,2013-01-29 11:35:00,
2013-01-29 06:45:00,40.2,38.6,30.08,SE,135,0.0,1.0,94,0.00,,,-99.99,WeatherLink 5.4,2013-01-29 11:45:00,
2013-01-29 06:50:00,40.2,38.6,30.08,SE,135,0.0,1.0,94,0.00,,,-99.99,WeatherLink 5.4,2013-01-29 11:50:00,
2013-01-29 07:00:00,39.9,38.3,30.08,North,-999,0.0,0.0,94,0.00,,,-99.99,WeatherLink 5.4,2013-01-29 12:00:00,
2013-01-29 07:15:00,39.8,38.2,30.09,North,-999,0.0,0.0,94,0.00,,,-99.99,WeatherLink 5.4,2013-01-29 12:15:00,
2013-01-29 07:30:00,39.8,38.2,30.09,North,-999,0.0,0.0,94,0.00,,,-99.99,WeatherLink 5.4,2013-01-29 12:30:00,
2013-01-29 07:35:00,39.8,38.2,30.09,North,-999,0.0,0.0,94,0.00,,,-99.99,WeatherLink 5.4,2013-01-29 12:35:00,
2013-01-29 07:45:00,39.8,38.2,30.10,North,-999,0.0,0.0,94,0.00,,,-99.99,WeatherLink 5.4,2013-01-29 12:45:00,
2013-01-29 07:50:00,39.8,38.2,30.10,North,-999,0.0,0.0,94,0.00,,,-99.99,WeatherLink 5.4,2013-01-29 12:50:00,
2013-01-29 08:00:00,39.8,38.2,30.11,North,-999,0.0,0.0,94,0.00,,,-99.99,WeatherLink 5.4,2013-01-29 13:00:00,
2013-01-29 08:15:00,39.9,38.3,30.11,North,-999,0.0,0.0,94,0.00,,,-99.99,WeatherLink 5.4,2013-01-29 13:15:00,
2013-01-29 08:20:00,39.9,38.3,30.11,North,-999,0.0,0.0,94,0.00,,,-99.99,WeatherLink 5.4,2013-01-29 13:20:00,
2013-01-29 08:30:00,40.2,38.9,30.11,North,-999,0.0,0.0,95,0.00,,,-99.99,WeatherLink 5.4,2013-01-29 13:30:00,
2013-01-29 08:35:00,40.2,38.9,30.11,North,-999,0.0,0.0,95,0.00,,,-99.99,WeatherLink 5.4,2013-01-29 13:35:00,
2013-01-29 08:45:00,40.8,39.5,30.12,North,-999,0.0,0.0,95,0.00,,,-99.99,WeatherLink 5.4,2013-01-29 13:45:00,
2013-01-29 09:00:00,41.6,40.3,30.12,SE,135,0.0,2.0,95,0.00,,,-99.99,WeatherLink 5.4,2013-01-29 14:00:00,
2013-01-29 09:15:00,42.3,41.2,30.12,SE,135,0.0,1.0,96,0.00,,,-99.99,WeatherLink 5.4,2013-01-29 14:15:00,
2013-01-29 09:30:00,43.3,42.2,30.12,North,-999,0.0,0.0,96,0.00,,,-99.99,WeatherLink 5.4,2013-01-29 14:30:00,
2013-01-29 09:45:00,44.6,43.5,30.12,SE,135,0.0,1.0,96,0.00,,,-99.99,WeatherLink 5.4,2013-01-29 14:45:00,
2013-01-29 10:00:00,46.2,45.4,30.12,SE,135,0.0,1.0,97,0.00,,,-99.99,WeatherLink 5.4,2013-01-29 15:00:00,
2013-01-29 10:05:00,46.2,45.4,30.12,SE,135,0.0,1.0,97,0.00,,,-99.99,WeatherLink 5.4,2013-01-29 15:05:00,
2013-01-29 10:15:00,48.3,47.5,30.11,SSE,157,0.0,3.0,97,0.00,,,-99.99,WeatherLink 5.4,2013-01-29 15:15:00,
2013-01-29 10:30:00,53.1,52.3,30.11,South,180,1.0,3.0,97,0.00,,,-99.99,WeatherLink 5.4,2013-01-29 15:30:00,
2013-01-29 10:35:00,53.1,52.3,30.11,South,180,1.0,3.0,97,0.00,,,-99.99,WeatherLink 5.4,2013-01-29 15:35:00,
2013-01-29 10:45:00,56.3,52.8,30.11,South,180,1.0,5.0,88,0.00,,,-99.99,WeatherLink 5.4,2013-01-29 15:45:00,
2013-01-29 10:50:00,56.3,52.8,30.11,South,180,1.0,5.0,88,0.00,,,-99.99,WeatherLink 5.4,2013-01-29 15:50:00,
2013-01-29 11:00:00,57.6,51.8,30.10,South,180,1.0,5.0,81,0.00,,,-99.99,WeatherLink 5.4,2013-01-29 16:00:00,
2013-01-29 11:15:00,58.3,51.8,30.10,South,180,0.0,2.0,79,0.00,,,-99.99,WeatherLink 5.4,2013-01-29 16:15:00,
2013-01-29 11:20:00,58.3,51.8,30.10,South,180,0.0,2.0,79,0.00,,,-99.99,WeatherLink 5.4,2013-01-29 16:20:00,
2013-01-29 11:30:00,59.5,51.9,30.09,South,180,0.0,3.0,76,0.00,,,-99.99,WeatherLink 5.4,2013-01-29 16:30:00,
2013-01-29 11:45:00,60.7,52.4,30.08,South,180,0.0,3.0,74,0.00,,,-99.99,WeatherLink 5.4,2013-01-29 16:45:00,
2013-01-29 12:00:00,61.3,52.2,30.06,South,180,1.0,5.0,72,0.00,,,-99.99,WeatherLink 5.4,2013-01-29 17:00:00,
2013-01-29 12:05:00,61.3,52.2,30.06,South,180,1.0,5.0,72,0.00,,,-99.99,WeatherLink 5.4,2013-01-29 17:05:00,
2013-01-29 12:15:00,62.6,52.7,30.06,South,180,1.0,5.0,70,0.00,,,-99.99,WeatherLink 5.4,2013-01-29 17:15:00,
2013-01-29 12:30:00,63.2,52.9,30.05,South,180,1.0,5.0,69,0.00,,,-99.99,WeatherLink 5.4,2013-01-29 17:30:00,
2013-01-29 12:35:00,63.2,52.9,30.05,South,180,1.0,5.0,69,0.00,,,-99.99,WeatherLink 5.4,2013-01-29 17:35:00,
2013-01-29 12:45:00,63.7,52.5,30.05,South,180,1.0,5.0,67,0.00,,,-99.99,WeatherLink 5.4,2013-01-29 17:45:00,
2013-01-29 12:50:00,63.7,52.5,30.05,South,180,1.0,5.0,67,0.00,,,-99.99,WeatherLink 5.4,2013-01-29 17:50:00,
2013-01-29 13:00:00,64.0,52.8,30.04,South,180,1.0,6.0,67,0.00,,,-99.99,WeatherLink 5.4,2013-01-29 18:00:00,
2013-01-29 13:05:00,64.0,52.8,30.04,South,180,1.0,6.0,67,0.00,,,-99.99,WeatherLink 5.4,2013-01-29 18:05:00,
2013-01-29 13:15:00,64.5,53.3,30.03,South,180,1.0,6.0,67,0.00,,,-99.99,WeatherLink 5.4,2013-01-29 18:15:00,
2013-01-29 13:20:00,64.5,53.3,30.03,South,180,1.0,6.0,67,0.00,,,-99.99,WeatherLink 5.4,2013-01-29 18:20:00,
2013-01-29 13:30:00,65.2,53.1,30.02,SSE,157,1.0,6.0,65,0.00,,,-99.99,WeatherLink 5.4,2013-01-29 18:30:00,
2013-01-29 13:45:00,65.5,53.0,30.01,SSE,157,1.0,6.0,64,0.00,,,-99.99,WeatherLink 5.4,2013-01-29 18:45:00,
2013-01-29 14:00:00,65.6,53.1,30.00,SSE,157,2.0,7.0,64,0.00,,,-99.99,WeatherLink 5.4,2013-01-29 19:00:00,
2013-01-29 14:05:00,65.6,53.1,30.00,SSE,157,2.0,7.0,64,0.00,,,-99.99,WeatherLink 5.4,2013-01-29 19:05:00,
2013-01-29 14:15:00,66.0,53.0,30.00,SSE,157,1.0,7.0,63,0.00,,,-99.99,WeatherLink 5.4,2013-01-29 19:15:00,
2013-01-29 14:30:00,66.4,53.4,30.00,South,180,0.0,3.0,63,0.00,,,-99.99,WeatherLink 5.4,2013-01-29 19:30:00,
2013-01-29 14:35:00,66.4,53.4,30.00,South,180,0.0,3.0,63,0.00,,,-99.99,WeatherLink 5.4,2013-01-29 19:35:00,
2013-01-29 14:45:00,66.8,53.8,30.00,South,180,1.0,6.0,63,0.00,,,-99.99,WeatherLink 5.4,2013-01-29 19:45:00,
2013-01-29 15:00:00,66.9,53.5,29.99,South,180,3.0,11.0,62,0.00,,,-99.99,WeatherLink 5.4,2013-01-29 20:00:00,
2013-01-29 15:15:00,66.6,52.7,30.00,SSE,157,4.0,11.0,61,0.00,,,-99.99,WeatherLink 5.4,2013-01-29 20:15:00,
2013-01-29 15:20:00,66.6,52.7,30.00,SSE,157,4.0,11.0,61,0.00,,,-99.99,WeatherLink 5.4,2013-01-29 20:20:00,
2013-01-29 15:30:00,66.3,52.4,30.00,South,180,2.0,7.0,61,0.00,,,-99.99,WeatherLink 5.4,2013-01-29 20:30:00,
2013-01-29 15:45:00,65.8,52.9,29.99,SSE,157,2.0,8.0,63,0.00,,,-99.99,WeatherLink 5.4,2013-01-29 20:45:00,
2013-01-29 15:50:00,65.8,52.9,29.99,SSE,157,2.0,8.0,63,0.00,,,-99.99,WeatherLink 5.4,2013-01-29 20:50:00,
2013-01-29 16:00:00,65.2,52.3,29.99,SSE,157,2.0,8.0,63,0.00,,,-99.99,WeatherLink 5.4,2013-01-29 21:00:00,
2013-01-29 16:05:00,65.2,52.3,29.99,SSE,157,2.0,8.0,63,0.00,,,-99.99,WeatherLink 5.4,2013-01-29 21:05:00,
2013-01-29 16:15:00,65.0,52.1,29.99,SSE,157,0.0,4.0,63,0.00,,,-99.99,WeatherLink 5.4,2013-01-29 21:15:00,
2013-01-29 16:30:00,64.7,51.8,29.99,SE,135,1.0,5.0,63,0.00,,,-99.99,WeatherLink 5.4,2013-01-29 21:30:00,
2013-01-29 16:45:00,64.2,51.3,29.98,SSE,157,1.0,6.0,63,0.00,,,-99.99,WeatherLink 5.4,2013-01-29 21:45:00,
2013-01-29 17:00:00,63.9,51.5,29.98,South,180,1.0,6.0,64,0.00,,,-99.99,WeatherLink 5.4,2013-01-29 22:00:00,
2013-01-29 17:05:00,63.9,51.5,29.98,South,180,1.0,6.0,64,0.00,,,-99.99,WeatherLink 5.4,2013-01-29 22:05:00,
2013-01-29 17:15:00,63.2,51.2,29.99,South,180,2.0,8.0,65,0.00,,,-99.99,WeatherLink 5.4,2013-01-29 22:15:00,
2013-01-29 17:20:00,63.2,51.2,29.99,South,180,2.0,8.0,65,0.00,,,-99.99,WeatherLink 5.4,2013-01-29 22:20:00,
2013-01-29 17:30:00,62.7,50.8,29.98,South,180,3.0,11.0,65,0.00,,,-99.99,WeatherLink 5.4,2013-01-29 22:30:00,
2013-01-29 17:35:00,62.7,50.8,29.98,South,180,3.0,11.0,65,0.00,,,-99.99,WeatherLink 5.4,2013-01-29 22:35:00,
2013-01-29 17:45:00,62.3,50.8,29.98,South,180,3.0,10.0,66,0.00,,,-99.99,WeatherLink 5.4,2013-01-29 22:45:00,
2013-01-29 17:50:00,62.3,50.8,29.98,South,180,3.0,10.0,66,0.00,,,-99.99,WeatherLink 5.4,2013-01-29 22:50:00,
2013-01-29 18:00:00,62.1,50.6,29.98,SSE,157,3.0,10.0,66,0.00,,,-99.99,WeatherLink 5.4,2013-01-29 23:00:00,
2013-01-29 18:05:00,62.1,50.6,29.98,SSE,157,3.0,10.0,66,0.00,,,-99.99,WeatherLink 5.4,2013-01-29 23:05:00,
2013-01-29 18:15:00,62.0,50.5,29.98,SSE,157,3.0,8.0,66,0.00,,,-99.99,WeatherLink 5.4,2013-01-29 23:15:00,
2013-01-29 18:30:00,61.8,50.3,29.98,SSE,157,2.0,10.0,66,0.00,,,-99.99,WeatherLink 5.4,2013-01-29 23:30:00,
2013-01-29 18:45:00,61.8,50.3,29.98,SSE,157,3.0,8.0,66,0.00,,,-99.99,WeatherLink 5.4,2013-01-29 23:45:00,
2013-01-29 18:50:00,61.8,50.3,29.98,SSE,157,3.0,8.0,66,0.00,,,-99.99,WeatherLink 5.4,2013-01-29 23:50:00,
2013-01-29 19:00:00,61.6,50.1,29.97,SSE,157,3.0,8.0,66,0.00,,,-99.99,WeatherLink 5.4,2013-01-30 00:00:00,
2013-01-29 19:15:00,61.6,50.5,29.98,SSE,157,3.0,8.0,67,0.00,,,-99.99,WeatherLink 5.4,2013-01-30 00:15:00,
2013-01-29 19:30:00,61.6,50.5,29.98,SSE,157,4.0,11.0,67,0.00,,,-99.99,WeatherLink 5.4,2013-01-30 00:30:00,
2013-01-29 19:35:00,61.6,50.5,29.98,SSE,157,4.0,11.0,67,0.00,,,-99.99,WeatherLink 5.4,2013-01-30 00:35:00,
2013-01-29 19:45:00,61.5,50.4,29.97,SSE,157,2.0,11.0,67,0.00,,,-99.99,WeatherLink 5.4,2013-01-30 00:45:00,
2013-01-29 19:50:00,61.5,50.4,29.97,SSE,157,2.0,11.0,67,0.00,,,-99.99,WeatherLink 5.4,2013-01-30 00:50:00,
2013-01-29 20:00:00,61.6,50.5,29.97,SSE,157,3.0,8.0,67,0.00,,,-99.99,WeatherLink 5.4,2013-01-30 01:00:00,
2013-01-29 20:15:00,61.6,50.5,29.97,South,180,3.0,10.0,67,0.00,,,-99.99,WeatherLink 5.4,2013-01-30 01:15:00,
2013-01-29 20:20:00,61.6,50.5,29.97,South,180,3.0,10.0,67,0.00,,,-99.99,WeatherLink 5.4,2013-01-30 01:20:00,
2013-01-29 20:30:00,61.6,50.5,29.97,South,180,3.0,8.0,67,0.00,,,-99.99,WeatherLink 5.4,2013-01-30 01:30:00,
2013-01-29 20:45:00,61.6,50.9,29.97,South,180,3.0,10.0,68,0.00,,,-99.99,WeatherLink 5.4,2013-01-30 01:45:00,
2013-01-29 21:00:00,61.6,50.5,29.97,South,180,3.0,8.0,67,0.00,,,-99.99,WeatherLink 5.4,2013-01-30 02:00:00,
2013-01-29 21:05:00,61.6,50.5,29.97,South,180,3.0,8.0,67,0.00,,,-99.99,WeatherLink 5.4,2013-01-30 02:05:00,
2013-01-29 21:15:00,61.6,50.5,29.96,South,180,3.0,8.0,67,0.00,,,-99.99,WeatherLink 5.4,2013-01-30 02:15:00,
2013-01-29 21:20:00,61.6,50.5,29.96,South,180,3.0,8.0,67,0.00,,,-99.99,WeatherLink 5.4,2013-01-30 02:20:00,
2013-01-29 21:30:00,61.5,50.4,29.96,South,180,3.0,8.0,67,0.00,,,-99.99,WeatherLink 5.4,2013-01-30 02:30:00,
2013-01-29 21:45:00,61.3,50.2,29.96,SSE,157,2.0,9.0,67,0.00,,,-99.99,WeatherLink 5.4,2013-01-30 02:45:00,
2013-01-29 22:00:00,61.3,50.6,29.96,South,180,3.0,11.0,68,0.00,,,-99.99,WeatherLink 5.4,2013-01-30 03:00:00,
2013-01-29 22:05:00,61.3,50.6,29.96,South,180,3.0,11.0,68,0.00,,,-99.99,WeatherLink 5.4,2013-01-30 03:05:00,
2013-01-29 22:15:00,61.5,50.4,29.94,SSW,202,4.0,13.0,67,0.00,,,-99.99,WeatherLink 5.4,2013-01-30 03:15:00,
2013-01-29 22:30:00,61.3,49.8,29.93,South,180,5.0,13.0,66,0.00,,,-99.99,WeatherLink 5.4,2013-01-30 03:30:00,
2013-01-29 22:45:00,61.2,49.7,29.93,South,180,6.0,13.0,66,0.00,,,-99.99,WeatherLink 5.4,2013-01-30 03:45:00,
2013-01-29 23:00:00,60.9,49.1,29.93,South,180,5.0,14.0,65,0.00,,,-99.99,WeatherLink 5.4,2013-01-30 04:00:00,
2013-01-29 23:05:00,60.9,49.1,29.93,South,180,5.0,14.0,65,0.00,,,-99.99,WeatherLink 5.4,2013-01-30 04:05:00,
2013-01-29 23:15:00,61.0,49.1,29.92,South,180,5.0,13.0,65,0.00,,,-99.99,WeatherLink 5.4,2013-01-30 04:15:00,
2013-01-29 23:30:00,61.2,49.3,29.91,South,180,4.0,12.0,65,0.00,,,-99.99,WeatherLink 5.4,2013-01-30 04:30:00,
2013-01-29 23:45:00,60.9,49.5,29.92,SSW,202,5.0,12.0,66,0.00,,,-99.99,WeatherLink 5.4,2013-01-30 04:45:00,